This demonstration page uses our WeatherBlox Daily Observations layout. Learn more.

Left ArrowRight Arrow

47.50024, -111.30081

Hourly Observations for December 8, 2022

Temp ( °F °C ) Dew Point ( °F °C ) Humidity (%) Winds ( mph kmh ) Pressure ( in mb ) Visibility ( mi km ) Precip ( " mm )
12:53 am 00:53 Clear 29 -1.7 18 -7.8 63 63 WSW 20 31 30.06 1018 10 16 0.00 0.00
1:53 am 01:53 Clear 25 -3.9 16 -8.9 68 68 SW 15 24 30.08 1019 10 16 0.00 0.00
2:53 am 02:53 Clear 26 -3.3 16 -8.9 65 65 SW 14 22 30.09 1019 10 16 0.00 0.00
3:53 am 03:53 Clear 27 -2.8 16 -8.9 63 63 SW 16 26 30.09 1019 10 16 0.00 0.00
4:53 am 04:53 Clear 26 -3.3 16 -8.9 65 65 SW 18 30 30.11 1020 10 16 0.00 0.00
5:53 am 05:53 Clear 27 -2.8 16 -8.9 63 63 SW 20 31 30.11 1020 10 16 0.00 0.00
6:53 am 06:53 Clear 26 -3.3 16 -8.9 65 65 SW 20 31 30.14 1021 10 16 0.00 0.00
7:53 am 07:53 Clear 26 -3.3 15 -9.4 63 63 SSW 16 26 30.14 1021 10 16 0.00 0.00
8:53 am 08:53 Sunny 28 -2.2 17 -8.3 63 63 SSW 20 31 30.13 1020 10 16 0.00 0.00
9:53 am 09:53 Sunny 29 -1.7 17 -8.3 61 61 SSW 15 24 30.15 1021 10 16 0.00 0.00
10:53 am 10:53 Sunny 29 -1.7 18 -7.8 63 63 SW 23 37 30.13 1020 10 16 0.00 0.00
11:53 am 11:53 Sunny 32 0 19 -7.2 58 58 SW 25 41 30.10 1019 10 16 0.00 0.00
12:53 pm 12:53 Sunny 34 1.1 19 -7.2 54 54 SW 26 43 30.06 1018 10 16 0.00 0.00
1:53 pm 13:53 Sunny 34 1.1 19 -7.2 54 54 SW 18 30 30.06 1018 10 16 0.00 0.00
2:53 pm 14:53 Sunny 32 0 18 -7.8 56 56 SSW 15 24 30.08 1019 10 16 0.00 0.00
3:53 pm 15:53 Sunny 31 -0.6 18 -7.8 58 58 SSW 17 28 30.06 1018 10 16 0.00 0.00
4:53 pm 16:53 Clear 30 -1.1 18 -7.8 60 60 SSW 15 24 30.08 1019 10 16 0.00 0.00
5:53 pm 17:53 Clear 30 -1.1 17 -8.3 58 58 SSW 23 37 30.05 1018 10 16 0.00 0.00
6:53 pm 18:53 Clear 29 -1.7 16 -8.9 58 58 SW 18 30 30.05 1018 10 16 0.00 0.00
7:53 pm 19:53 Clear 27 -2.8 15 -9.4 60 60 SSW 15 24 30.05 1018 10 16 0.00 0.00
8:53 pm 20:53 Clear 31 -0.6 15 -9.4 51 51 SSW 24 39 30.01 1016 10 16 0.00 0.00
9:53 pm 21:53 Clear 31 -0.6 15 -9.4 51 51 S 15 24 29.99 1016 10 16 0.00 0.00
10:53 pm 22:53 Clear 30 -1.1 16 -8.9 55 55 SSW 22 35 29.98 1015 10 16 0.00 0.00
11:53 pm 23:53 Clear 31 -0.6 16 -8.9 53 53 S 26 43 29.94 1014 10 16 0.00 0.00

Powered by AerisWeather